Weather History for Wooster, OH

Change the Weather History Date:

Thursday, October 10, 2013

  Actual Average Record
Temperature  
Mean Temperature 52 °F -  
Max Temperature 68 °F 63 °F 84 °F (2010)
Min Temperature 37 °F 39 °F 35 °F (2000)
Degree Days  
Heating Degree Days 12    
Growing Degree Days 2 (Base 50)    
Moisture  
Dew Point 41 °F    
Average Humidity 73    
Maximum Humidity 96    
Minimum Humidity 33    
Precipitation  
Precipitation 0.01 in - - ()
Sea Level Pressure  
Sea Level Pressure 30.20 in    
Wind  
Wind Speed 2 mph (NE)    
Max Wind Speed 7 mph    
Max Gust Speed -    
Visibility 10 miles    
Events      
Averages and records for this station are not official NWS values.
T = Trace of Precipitation, MM = Missing Value Source: NWS Daily Summary

Daily Weather History Graph

Daily Weather History Graph

Search for Another Location

Airport:

Trip Planner

Search our weather history database for the weather conditions in past years. The results will help you decide how hot, cold, wet, or windy it might be!

Date:

Astronomy

Oct. 10, 2013 Rise Set
Actual Time 7:33 AM EDT 6:54 PM EDT
Civil Twilight 7:06 AM EDT 7:21 PM EDT
Nautical Twilight 6:34 AM EDT 7:53 PM EDT
Astronomical Twilight 6:02 AM EDT 8:25 PM EDT
Moon 1:25 PM EDT (10/10) 11:29 PM EDT (10/10)
Length of Visible Light 12h 15m
Length of Day
11h 20m
Waxing Crescent, 35% of the Moon is Illuminated
Oct 10
Waxing Crescent
Oct 11
First Quarter
Oct 18
Full
Oct 26
Last Quarter
Nov 3
New

Hourly Weather History & Observations

Time (EDT) Temp. Windchill Dew Point Humidity Pressure Visibility Wind Dir Wind Speed Gust Speed Precip Events Conditions
12:56 AM 42.1 °F - 39.0 °F 89% 30.23 in 10.0 mi Calm Calm - N/A   Clear
1:56 AM 41.0 °F - 37.9 °F 89% 30.22 in 10.0 mi Calm Calm - N/A   Clear
2:56 AM 41.0 °F - 37.9 °F 89% 30.22 in 10.0 mi Calm Calm - N/A   Clear
3:56 AM 41.0 °F - 39.0 °F 93% 30.21 in 10.0 mi Calm Calm - N/A   Clear
4:56 AM 39.9 °F 37.8 °F 37.9 °F 93% 30.22 in 10.0 mi North 3.5 mph - N/A   Clear
5:56 AM 39.0 °F - 37.0 °F 93% 30.23 in 10.0 mi Calm Calm - N/A   Clear
6:56 AM 39.0 °F 36.8 °F 37.0 °F 93% 30.24 in 9.0 mi NNW 3.5 mph - N/A   Clear
7:56 AM 37.0 °F - 36.0 °F 96% 30.25 in 6.0 mi Calm Calm - 0.01 in   Clear
8:56 AM 44.1 °F - 42.1 °F 93% 30.25 in 8.0 mi Calm Calm - N/A   Clear
9:56 AM 53.1 °F - 44.1 °F 71% 30.25 in 10.0 mi NE 3.5 mph - N/A   Clear
10:56 AM 54.0 °F - 43.0 °F 66% 30.24 in 10.0 mi SE 3.5 mph - N/A   Clear
11:56 AM 57.0 °F - 43.0 °F 59% 30.22 in 10.0 mi East 4.6 mph - N/A   Clear
12:56 PM 57.9 °F - 43.0 °F 58% 30.22 in 10.0 mi NE 3.5 mph - N/A   Clear
1:56 PM 62.1 °F - 44.1 °F 52% 30.20 in 10.0 mi NNE 3.5 mph - N/A   Clear
2:56 PM 66.9 °F - 41.0 °F 39% 30.17 in 10.0 mi NNE 5.8 mph - N/A   Clear
3:56 PM 66.9 °F - 37.0 °F 33% 30.17 in 10.0 mi ENE 5.8 mph - N/A   Clear
4:56 PM 68.0 °F - 39.9 °F 36% 30.16 in 10.0 mi NNE 6.9 mph - N/A   Clear
5:56 PM 66.0 °F - 41.0 °F 40% 30.16 in 10.0 mi NNE 5.8 mph - N/A   Clear
6:56 PM 59.0 °F - 44.1 °F 58% 30.16 in 10.0 mi NNE 3.5 mph - N/A   Clear
7:56 PM 53.1 °F - 46.0 °F 77% 30.15 in 10.0 mi Calm Calm - N/A   Clear
8:56 PM 50.0 °F - 45.0 °F 83% 30.14 in 10.0 mi Calm Calm - N/A   Clear
9:56 PM 50.0 °F - 45.0 °F 83% 30.14 in 10.0 mi Calm Calm - N/A   Clear
10:56 PM 46.9 °F - 44.1 °F 90% 30.14 in 10.0 mi Calm Calm - N/A   Clear
11:56 PM 46.0 °F - 43.0 °F 89% 30.13 in 10.0 mi Calm Calm - N/A   Clear